This demonstration page uses our WeatherBlox Daily Observations layout. Learn more.

Left ArrowRight Arrow

Hourly Observations for June 24, 2017

Temp ( °F °C ) Dew Point ( °F °C ) Humidity (%) Winds ( mph kmh ) Pressure ( in mb ) Visibility ( mi km ) Precip ( " mm )
12:53 am 00:53 Clear 43 6.1 36 2.2 76 76 SW 5 7 30.26 1025 10 16 0.00 0.00
1:53 am 01:53 Clear 41 5 36 2.2 82 82 WNW 3 6 30.28 1025 10 16 0.00 0.00
2:53 am 02:53 Clear 41 5 36 2.2 82 82 WSW 5 7 30.28 1026 10 16 0.00 0.00
3:53 am 03:53 Clear 40 4.4 36 2.2 86 86 WSW 7 11 30.29 1026 10 16 0.00 0.00
4:53 am 04:53 Clear 40 4.4 36 2.2 86 86 WSW 7 11 30.30 1026 10 16 0.00 0.00
5:53 am 05:53 Sunny 42 5.6 38 3.3 85 85 W 3 6 30.31 1027 10 16 0.00 0.00
6:53 am 06:53 Mostly Sunny 47 8.3 39 3.9 74 74 WSW 3 6 30.31 1026 10 16 0.00 0.00
7:53 am 07:53 Sunny 49 9.4 40 4.4 71 71 SW 3 6 30.32 1027 10 16 0.00 0.00
8:53 am 08:53 Mostly Cloudy 56 13.3 40 4.4 55 55 SW 5 7 30.32 1027 10 16 0.00 0.00
9:53 am 09:53 Mostly Sunny 65 18.3 41 5 42 42 W 5 7 30.31 1026 10 16 0.00 0.00
10:53 am 10:53 Sunny 69 20.6 37 2.8 31 31 N 8 13 30.30 1026 10 16 0.00 0.00
11:53 am 11:53 Mostly Cloudy 70 21.1 38 3.3 31 31 NW 7 11 30.31 1027 10 16 0.00 0.00
12:53 pm 12:53 Mostly Cloudy 72 22.2 37 2.8 28 28 VRB 3 6 30.31 1027 10 16 0.00 0.00
1:53 pm 13:53 Cloudy 70 21.1 36 2.2 29 29 N 10 17 30.32 1027 10 16 0.00 0.00
2:53 pm 14:53 Partly Cloudy 72 22.2 36 2.2 27 27 Calm 30.30 1026 10 16 0.00 0.00
3:53 pm 15:53 Mostly Cloudy 74 23.3 35 1.7 24 24 VRB 7 11 30.30 1026 10 16 0.00 0.00
4:53 pm 16:53 Sunny 69 20.6 39 3.9 33 33 N 21 33 30.31 1027 10 16 0.00 0.00
5:53 pm 17:53 Sunny 73 22.8 38 3.3 28 28 N 8 13 30.29 1026 10 16 0.00 0.00
6:53 pm 18:53 Sunny 72 22.2 35 1.7 26 26 NNW 10 17 30.28 1025 10 16 0.00 0.00
7:53 pm 19:53 Sunny 70 21.1 37 2.8 30 30 NW 10 17 30.28 1025 10 16 0.00 0.00
8:53 pm 20:53 Sunny 66 18.9 39 3.9 37 37 WNW 5 7 30.27 1025 10 16 0.00 0.00
9:53 pm 21:53 Clear 61 16.1 39 3.9 44 44 WNW 6 9 30.28 1025 10 16 0.00 0.00
10:53 pm 22:53 Clear 50 10 40 4.4 68 68 SSW 6 9 30.30 1026 10 16 0.00 0.00
11:53 pm 23:53 Clear 48 8.9 40 4.4 74 74 S 7 11 30.30 1026 10 16 0.00 0.00

Powered by AerisWeather